Charleston, SC

9:30 AM EDT on April 24, 2017 (GMT -0400)
Charleston Executive

Weather History for KJZI - October, 2012

Change the Weather History Date:

Wednesday, October 31, 2012

  Actual Average (KCHS) Record (KCHS)
Temperature  
Mean Temperature 58 °F -  
Max Temperature 69 °F 72 °F 87 °F (1961)
Min Temperature 46 °F 52 °F 35 °F (1952)
Degree Days  
Heating Degree Days 8    
Growing Degree Days 8 (Base 50)    
Moisture  
Dew Point 29 °F    
Average Humidity 39    
Maximum Humidity 58    
Minimum Humidity 16    
Precipitation  
Precipitation 0.00 in - - ()
Sea Level Pressure  
Sea Level Pressure 29.80 in    
Wind  
Wind Speed 10 mph (WSW)    
Max Wind Speed 20 mph    
Max Gust Speed 24 mph    
Visibility 10 miles    
Events      
Averages and records for this station are not official NWS values.
T = Trace of Precipitation, MM = Missing Value Source: NWS Daily Summary

Daily Weather History Graph

Daily Weather History Graph

Search for Another Location

Airport or City:

Trip Planner

Search our weather history database for the weather conditions in past years. The results will help you decide how hot, cold, wet, or windy it might be!

Date:

Astronomy

Oct. 31, 2012 Rise Set
Actual Time 7:37 AM EDT 6:29 PM EDT
Civil Twilight 7:11 AM EDT 6:54 PM EDT
Nautical Twilight 6:42 AM EDT 7:24 PM EDT
Astronomical Twilight 6:13 AM EDT 7:52 PM EDT
Moon 7:45 PM EDT (10/31) 9:10 AM EDT (10/31)
Length of Visible Light 11h 43m
Length of Day
10h 52m
Full, 97% of the Moon is Illuminated
Oct 31
Full
Nov 6
Last Quarter
Nov 13
New
Nov 20
First Quarter
Nov 28
Full

Hourly Weather History & Observations

Time (EDT) Temp. Windchill Dew Point Humidity Pressure Visibility Wind Dir Wind Speed Gust Speed Precip Events Conditions
12:15 AM 51.8 °F - 24.8 °F 35% 29.77 in 10.0 mi WSW 8.1 mph - 0.00 in   Clear
12:35 AM 51.8 °F - 26.6 °F 38% 29.77 in 10.0 mi West 10.4 mph - 0.00 in   Clear
12:55 AM 51.8 °F - 24.8 °F 35% 29.77 in 10.0 mi West 12.7 mph 19.6 mph 0.00 in   Clear
1:15 AM 51.8 °F - 24.8 °F 35% 29.77 in 10.0 mi West 15.0 mph 19.6 mph 0.00 in   Clear
1:35 AM 51.8 °F - 26.6 °F 38% 29.77 in 10.0 mi West 11.5 mph 17.3 mph 0.00 in   Clear
1:55 AM 51.8 °F - 26.6 °F 38% 29.78 in 10.0 mi West 12.7 mph 19.6 mph 0.00 in   Clear
2:15 AM 51.8 °F - 26.6 °F 38% 29.78 in 10.0 mi West 8.1 mph - 0.00 in   Clear
2:35 AM 50.0 °F - 26.6 °F 40% 29.78 in 10.0 mi WSW 8.1 mph - 0.00 in   Clear
2:55 AM 50.0 °F - 26.6 °F 40% 29.78 in 10.0 mi WSW 6.9 mph - 0.00 in   Clear
3:15 AM 48.2 °F - 26.6 °F 43% 29.78 in 10.0 mi WSW 6.9 mph - 0.00 in   Clear
3:35 AM 48.2 °F - 28.4 °F 46% 29.78 in 10.0 mi WSW 5.8 mph - 0.00 in   Clear
3:55 AM 46.4 °F 42.9 °F 28.4 °F 50% 29.78 in 10.0 mi WSW 6.9 mph - 0.00 in   Clear
4:15 AM 46.4 °F 43.5 °F 28.4 °F 50% 29.78 in 10.0 mi WSW 5.8 mph - 0.00 in   Clear
4:35 AM 46.4 °F 42.9 °F 28.4 °F 50% 29.78 in 10.0 mi WSW 6.9 mph - 0.00 in   Clear
4:55 AM 46.4 °F 42.4 °F 28.4 °F 50% 29.79 in 10.0 mi WSW 8.1 mph - 0.00 in   Clear
5:15 AM 46.4 °F 42.9 °F 28.4 °F 50% 29.79 in 10.0 mi WSW 6.9 mph - 0.00 in   Clear
5:35 AM 46.4 °F 42.9 °F 30.2 °F 53% 29.80 in 10.0 mi WSW 6.9 mph - 0.00 in   Clear
5:55 AM 46.4 °F 42.4 °F 30.2 °F 53% 29.80 in 10.0 mi WSW 8.1 mph - 0.00 in   Clear
6:15 AM 46.4 °F 43.5 °F 30.2 °F 53% 29.81 in 10.0 mi WSW 5.8 mph - 0.00 in   Clear
6:35 AM 46.4 °F 42.4 °F 30.2 °F 53% 29.81 in 10.0 mi WSW 8.1 mph - 0.00 in   Clear
6:55 AM 46.4 °F 42.4 °F 30.2 °F 53% 29.81 in 10.0 mi WSW 8.1 mph - 0.00 in   Clear
7:15 AM 46.4 °F 41.9 °F 30.2 °F 53% 29.81 in 10.0 mi West 9.2 mph - 0.00 in   Clear
7:35 AM 46.4 °F 41.5 °F 30.2 °F 53% 29.81 in 10.0 mi West 10.4 mph - 0.00 in   Clear
7:55 AM 46.4 °F 42.4 °F 30.2 °F 53% 29.82 in 10.0 mi West 8.1 mph - 0.00 in   Clear
8:15 AM 46.4 °F 41.9 °F 30.2 °F 53% 29.82 in 10.0 mi WSW 9.2 mph - 0.00 in   Clear
8:35 AM 48.2 °F - 30.2 °F 50% 29.83 in 10.0 mi WSW 10.4 mph - 0.00 in   Clear
8:55 AM 50.0 °F - 30.2 °F 47% 29.83 in 10.0 mi West 13.8 mph 19.6 mph 0.00 in   Clear
9:15 AM 51.8 °F - 30.2 °F 44% 29.83 in 10.0 mi West 13.8 mph 19.6 mph 0.00 in   Clear
9:35 AM 53.6 °F - 30.2 °F 41% 29.84 in 10.0 mi West 16.1 mph 19.6 mph 0.00 in   Clear
9:55 AM 55.4 °F - 30.2 °F 38% 29.84 in 10.0 mi West 16.1 mph 21.9 mph 0.00 in   Clear
10:15 AM 53.6 °F - 30.2 °F 41% 29.83 in 10.0 mi West 15.0 mph 23.0 mph 0.00 in   Clear
10:35 AM 53.6 °F - 30.2 °F 41% 29.83 in 10.0 mi West 16.1 mph 20.7 mph 0.00 in   Clear
10:55 AM 55.4 °F - 30.2 °F 38% 29.82 in 10.0 mi West 12.7 mph 21.9 mph 0.00 in   Clear
11:15 AM 57.2 °F - 30.2 °F 36% 29.83 in 10.0 mi West 13.8 mph 21.9 mph 0.00 in   Clear
11:35 AM 57.2 °F - 30.2 °F 36% 29.83 in 10.0 mi West 15.0 mph 20.7 mph 0.00 in   Clear
11:55 AM 59.0 °F - 32.0 °F 36% 29.82 in 10.0 mi WSW 10.4 mph 20.7 mph 0.00 in   Clear
12:15 PM 60.8 °F - 32.0 °F 34% 29.81 in 10.0 mi West 15.0 mph 20.7 mph 0.00 in   Clear
12:35 PM 62.6 °F - 32.0 °F 32% 29.80 in 10.0 mi WSW 15.0 mph 20.7 mph 0.00 in   Clear
12:55 PM 62.6 °F - 32.0 °F 32% 29.80 in 10.0 mi West 13.8 mph 21.9 mph 0.00 in   Clear
1:15 PM 64.4 °F - 32.0 °F 30% 29.79 in 10.0 mi West 17.3 mph 20.7 mph 0.00 in   Clear
1:35 PM 64.4 °F - 32.0 °F 30% 29.78 in 10.0 mi West 12.7 mph 21.9 mph 0.00 in   Clear
1:55 PM 64.4 °F - 30.2 °F 28% 29.78 in 10.0 mi West 11.5 mph 24.2 mph 0.00 in   Partly Cloudy
2:15 PM 66.2 °F - 30.2 °F 26% 29.77 in 10.0 mi West 12.7 mph 23.0 mph 0.00 in   Clear
2:35 PM 66.2 °F - 28.4 °F 24% 29.76 in 10.0 mi West 19.6 mph 24.2 mph 0.00 in   Clear
2:55 PM 66.2 °F - 28.4 °F 24% 29.76 in 10.0 mi West 16.1 mph 19.6 mph 0.00 in   Clear
3:15 PM 66.2 °F - 26.6 °F 23% 29.76 in 10.0 mi West 15.0 mph 24.2 mph 0.00 in   Clear
3:35 PM 66.2 °F - 23.0 °F 19% 29.76 in 10.0 mi West 17.3 mph 23.0 mph 0.00 in   Clear
3:55 PM 68.0 °F - 23.0 °F 18% 29.76 in 10.0 mi West 11.5 mph 21.9 mph 0.00 in   Clear
4:15 PM 68.0 °F - 21.2 °F 17% 29.76 in 10.0 mi West 16.1 mph 24.2 mph 0.00 in   Clear
4:35 PM 68.0 °F - 21.2 °F 17% 29.75 in 10.0 mi West 11.5 mph 20.7 mph 0.00 in   Clear
4:55 PM 69.8 °F - 21.2 °F 16% 29.75 in 10.0 mi WSW 8.1 mph - 0.00 in   Clear
5:15 PM 68.0 °F - 21.2 °F 17% 29.76 in 10.0 mi West 12.7 mph 16.1 mph 0.00 in   Clear
5:35 PM 68.0 °F - 19.4 °F 16% 29.76 in 10.0 mi West 9.2 mph 17.3 mph 0.00 in   Clear
5:55 PM 66.2 °F - 19.4 °F 17% 29.77 in 10.0 mi West 11.5 mph 18.4 mph 0.00 in   Clear
6:15 PM 64.4 °F - 21.2 °F 19% 29.78 in 10.0 mi WSW 6.9 mph - 0.00 in   Clear
6:35 PM 62.6 °F - 23.0 °F 22% 29.78 in 10.0 mi Calm Calm - 0.00 in   Clear
6:55 PM 59.0 °F - 24.8 °F 27% 29.79 in 10.0 mi Calm Calm - 0.00 in   Clear
7:15 PM 57.2 °F - 26.6 °F 31% 29.80 in 10.0 mi Calm Calm - 0.00 in   Clear
7:35 PM 53.6 °F - 30.2 °F 41% 29.81 in 10.0 mi Calm Calm - 0.00 in   Clear
7:55 PM 51.8 °F - 32.0 °F 47% 29.82 in 10.0 mi Calm Calm - 0.00 in   Clear
8:35 PM 51.8 °F - 32.0 °F 47% 29.83 in 10.0 mi Calm Calm - 0.00 in   Clear
8:55 PM 48.2 °F - 32.0 °F 54% 29.83 in 10.0 mi Calm Calm - 0.00 in   Clear
9:15 PM 48.2 °F - 32.0 °F 54% 29.83 in 10.0 mi Calm Calm - 0.00 in   Clear
9:35 PM 51.8 °F - 32.0 °F 47% 29.84 in 10.0 mi Calm Calm - 0.00 in   Clear
9:55 PM 53.6 °F - 32.0 °F 44% 29.84 in 10.0 mi SW 5.8 mph - 0.00 in   Clear
10:15 PM 53.6 °F - 32.0 °F 44% 29.85 in 10.0 mi WSW 5.8 mph - 0.00 in   Clear
10:35 PM 53.6 °F - 33.8 °F 47% 29.85 in 10.0 mi WSW 4.6 mph - 0.00 in   Clear
10:55 PM 51.8 °F - 33.8 °F 50% 29.85 in 10.0 mi WSW 6.9 mph - 0.00 in   Clear
11:15 PM 51.8 °F - 33.8 °F 50% 29.85 in 10.0 mi WSW 5.8 mph - 0.00 in   Clear
11:35 PM 50.0 °F - 35.6 °F 58% 29.86 in 10.0 mi WSW 3.5 mph - 0.00 in   Clear
11:55 PM 50.0 °F - 35.6 °F 58% 29.86 in 10.0 mi Calm Calm - 0.00 in   Clear